FENGYUN 1C DEB

Satellite information

Favourite Embed

Satellite Type and Status

DEBRISIN ORBIT

Key statistics

Satellite FENGYUN 1C DEB at a glance.

Uptime

9609

Days in orbit

Revolutions

≈ 14.3

Per day

Orbit

SSO

Sun Synchronous Orbit

Inclination

99.0

Latest

Satellite identification and parameters

Extended collection of information and parameters for FENGYUN 1C DEB.

Object identification

Identified? True

Debris? True

Object name: FENGYUN 1C DEB

International designator: 1999-025KK

Object number (NORAD): 29961

Object ID (CCSDS): 29961

Country: PEOPLES REPUBLIC OF CHINA (PRC)

Current information (Y/N): Y

RCS size: SMALL

Orbital parameters

Period: 100.976 minutes

Inclination: 98.9594 deg

SMA: 7182.992 km

Apoapsis: 857.885 km

Periapsis: 751.829 km

RAAN: 126.7177 deg

Eccentricy: 0.00738246

Argument of periapsis: 247.8366 deg

Mean anomaly: 111.4966 deg

Mean motion: 14.26082624 rev/day

Mean motion (dot): 0.00000334 rev/day2

B* drag term: 0.00015482289 1/REarth

Two-line elements (TLE)

Creation date: Aug. 30, 2025, 3:38 a.m.

Reference frame: TEME

Reference center: EARTH

Epoch: Aug. 29, 2025, 3:05 p.m. UTC

TLE line 0: 0 FENGYUN 1C DEB

TLE line 1: 1 29961U 99025KK 25241.62851111 .00000334 00000-0 15482-3 0 9994

TLE line 2: 2 29961 98.9594 126.7177 0073825 247.8366 111.4966 14.26082624968113

Live tracking on map

Real-time ground track for satellite FENGYUN 1C DEB.

In-orbit conjunctions

A list of the most updated potential collisions computed for object FENGYUN 1C DEB.

Target Orbit TCA Probability of collision Miss distance Type
FENGYUN 1C DEB SSO 2025-06-15 18:21:54 0.0003399978 64.0 (m) DEBRIS
FENGYUN 1C DEB SSO 2025-06-06 01:16:21 0.0002435531 31.0 (m) DEBRIS
NOAA 16 DEB SSO 2025-05-13 07:41:22 0.0001108026 287.0 (m) DEBRIS
FENGYUN 1C DEB SSO 2025-04-23 23:49:46 0.0001952689 53.0 (m) DEBRIS
CZ-6A DEB SSO 2024-11-12 08:22:48 0.0003618896 348.0 (m) DEBRIS

Associated space launch

Chinese polar orbiting meteorological satellite

FENGYUN 1C DEB was lifted into orbit during the mission ‘Long March 4B | Feng Yun 1C’, on board a Long March 4B space rocket.

The launch took place on May 10, 1999, 1:33 a.m. from Launch Complex 7.

For more information about the launch, click the button.

Launch to space Long March 4B | Feng Yun 1C
Long March 4B | Feng Yun 1C

Agency: N/A

Status: Launch Successful

Launch date: May 10, 1999, 1:33 a.m. UTC

Rocket: Long March 4B

Launch pad: Launch Complex 7

Location: Taiyuan Satellite Launch Center, People's Republic of China

...

Latest news about this satellite

There are no fresh news available about this satellite. Check back as we update our databases every day.


Newsletter sign-up

Weekly statistics, charts and insights to help you stay on top of the space industry.